Tracking 29489 objects as of 10-Sep-2024
HD Live streaming from Space Station
objects crossing your sky now

FENGYUN 1C DEB

Track FENGYUN 1C DEB now!
10-day predictions


NORAD ID: 30504
Int'l Code: 1999-025AHS
Perigee: 752.5 km
Apogee: 920.8 km
Inclination: 99.1 °
Period: 101.5 minutes
Semi major axis: 7207 km
RCS: 0.0107 m2 (small)
Launch date: May 10, 1999
Source: People's Republic of China (PRC)
Launch site: Taiyaun Space Center, China (TSC)

Note: This is SATELLITE DEBRIS
Your satellite tracking list
Your tracking list is empty




NASA's NSSDC Master Catalog

Two Line Element Set (TLE):
1 30504U 99025AHS 24253.01894615  .00007593  00000-0  34318-2 0  9992
2 30504  99.0781 282.8465 0116716  88.0528 303.1494 14.18775715908700
Source of the keplerian elements: AFSPC